Hourly Data Report for October 05, 2019

All times are specified in Local Standard Time (LST). Add 1 hour to adjust for Daylight Saving Time where and when it is observed.

WOODSTOCK NEWBRIDGE
NEW BRUNSWICK
Current Station Operator: ECCC - MSC

46°09'08.000" N
67°32'34.000" W
154.00 m
8105603
71606
EWD

Download Data

Hourly Data (October 2019)
Hourly Data Report for October 5, 2019
TIME Temp Definition
°C
Dew Point Definition
°C
Rel Hum Definition
%
Wind Dir Definition
10's deg

Wind Spd Definition
km/h
Visibility Definition
km
Stn Press Definition
kPa
Hmdx Definition


Wind Chill Definition


Weather Definition


00:00 2.5 -0.5 81 28 6   100.32     LegendNANA
01:00 0.2 -1.1 91 26 3   100.40     LegendNANA
02:00 2.3 0.1 86 29 7   100.44     LegendNANA
03:00 2.2 -0.3 84 27 7   100.50     LegendNANA
04:00 0.6 -0.7 91 27 6   100.58     LegendNANA
05:00 0.4 -1.0 90 27 5   100.67     LegendNANA
06:00 0.9 -0.3 92 30 7   100.72     LegendNANA
07:00 1.0 -0.4 91 29 5   100.78     LegendNANA
08:00 3.5 0.0 78 30 10   100.82     LegendNANA
09:00 5.7 0.1 67 31 13   100.86     LegendNANA
10:00 6.7 -0.2 61 30 15   100.87     LegendNANA
11:00 7.7 -0.1 58 30 15   100.86     LegendNANA
12:00 9.1 0.0 53 30 17   100.84     LegendNANA
13:00 10.5 0.1 49 31 12   100.79     LegendNANA
14:00 11.9 0.3 45 29 10   100.77     LegendNANA
15:00 12.4 -0.7 40 31 8   100.75     LegendNANA
16:00 12.9 0.1 41 30 8   100.73     LegendNANA
17:00 12.3 -0.7 41 28 8   100.74     LegendNANA
18:00 7.4 1.8 67 27 3   100.76     LegendNANA
19:00 3.9 1.6 85 11 1   100.75     LegendNANA
20:00 1.7 0.7 93 28 2   100.81     LegendNANA
21:00 1.2 0.5 95 28 4   100.87     LegendNANA
22:00 0.4 -0.2 96 26 5   100.91     LegendNANA
23:00 -0.2 -0.9 95 5 1   100.90   -1 LegendNANA

Notes on Data Quality.

Legend

  • E = Estimated
  • M = Missing
  • NA = Not Available
Date modified: